THORAD DELTA 1 DEB, 8165

Orbit data source: Space-Track

THORAD DELTA 1 DEB, 8165 is space debris in SSO originally from a launch on Fri, 15 Nov 1974 UTC launched from the Air Force Western Test Range (AFWTR). Debris objects in space refer to the collection of defunct objects orbiting the Earth. Examples of debris include non-operational satellites, rocket bodies, and fragments generated from explosions, collisions, or faulty payload assembly.

Loading next visibility...
Identifier
8165, 1974-089AF
Orbit
SSO
Last TLE update
20 hours ago
Origin
Manufacturer
Unknown
Mission
Spacecraft
Bus & Motor
Unknown
Mass
Unknown
Launch date (UTC)
1974-11-15 (50 years ago)
Launch vehicle
Unknown
Launch site
Air Force Western Test Range (AFWTR)
Object type
Payload
Rocket body
Debris
Shape & HBR
Unknown
Radar Cross Section
Small (<0.1 m²)

Expand to show TLE details & history

TLE from 20 hours ago
0 THORAD DELTA 1 DEB
1 08165U 74089AF  25128.41285678  .00000072  00000-0  75918-3 0  9999
2 08165 101.6666  76.1152 0017827 301.6035 181.0004 12.50151733302189
Epoch: 2025-05-08T09:54Z
Definitive object data (Epoch: 2025-05-08T09:54:30.825Z)
Latitude
55.687°
Longitude
-101.47552°
Altitude
1,486.899 km
Speed
7.119 km/s
True Right ascension
18h 14m 32s
True Declination
55° 32' 30"
Sunlit
Object was in daylight at TLE epoch
Visualization TLE readout
Latitude
-16.79595°
Longitude
65.38797°
Altitude
1,459.902 km
Speed
7.137 km/s
Apparent Right ascension
04h 13m 29s
Apparent Declination
-28° 42' 51"
Sunlit
Object is in daylight
Visualization observer readout
Local Sidereal Time
14:26:11
Azimuth
288.669° WNW
Elevation
-65.309°
Doppler factor
1
Orbital elements
Apogee altitude
1,475.378 km
Perigee altitude
1,447.427 km
Semi-major axis
7,839.539 km
Eccentricity
0.0017827
Inclination
101.6666°
RAAN
76.1152°
Arg. of periapsis
301.6035°
True anomaly
180.99684°
Mean anomaly
181.0004°
Eccentric anomaly
180.99862°
Mean motion
3.12685 °/min
BSTAR
0.00075918
Orbital period
115.13 mins
Loading maneuver chart data...
Loading SW <> Apogee altitude chart data...
Loading historical data...
Loading historical data...
Loading historical data...
Loading historical data...
Loading historical data...
Loading historical data...
Loading historical data...

THORAD DELTA 1 DEB Visibility forecast

Observer location: undefined°, undefined°

Span
Click to sort rows by Start time (UTC) header in descending order
Start Az.
Max El. time (UTC)
Max El. Az.
Max El.
End time (UTC)
End Az.
16 mins2025-05-09 08:55:22.819Z25.827° NE2025-05-09 09:03:22.819Z107.281° ESE40.107°2025-05-09 09:11:22.819Z180.672° SSW
12 mins2025-05-09 10:50:22.819Z353.561° N2025-05-09 10:55:22.819Z307.792° NW28.999°2025-05-09 11:02:22.819Z244.38° WSW
7 mins2025-05-09 18:08:22.819Z71.803° E2025-05-09 18:11:22.819Z47.456° ENE16.437°2025-05-09 18:15:22.819Z16.896° NNE
14 mins2025-05-09 19:56:22.819Z149.971° SSE2025-05-09 20:03:22.819Z41.136° NE43.603°2025-05-09 20:10:22.819Z346.965° N
10 mins2025-05-09 21:52:22.819Z229.17° WSW2025-05-09 21:56:22.819Z264.116° W21.403°2025-05-09 22:02:22.819Z313.125° NW
|